Regional Weather Roundup
Issued by NWS

Home | Current Version | Previous Version | Graphics & Text | Print | Product List | Glossary On
Versions: 1 2 3 4 5 6 7 8 9 10 11 12 13 14 15 16 17 18 19 20 21 22 23 24 25 26 27 28 29 30 31 32 33 34 35 36 37 38 39 40 41 42 43 44 45 46 47 48 49 50
000
ASUS43 KTOP 290659
RWRKS

WEATHER ROUNDUP FOR KANSAS
NATIONAL WEATHER SERVICE GOODLAND KS
200 AM CDT SAT AUG 29 2015

NOTE:  "FAIR" INDICATES FEW OR NO CLOUDS BELOW 12,000 FEET WITH NO
SIGNIFICANT WEATHER AND/OR OBSTRUCTIONS TO VISIBILITY.

KSZ001>006-013>018-027>032-041>047-290800-
NORTHWEST KANSAS

CITY           SKY/WX    TMP DP  RH WIND       PRES   REMARKS
GOODLAND       CLEAR     62  57  83 S5        30.18S
HAYS           CLEAR     63  54  72 NW5       30.07S
HILL CITY      CLEAR     60  58  92 NW5       30.09S
RUSSELL        CLEAR     63  62  97 NW3       30.04S
$$

KSZ061>065-074>080-084>089-290800-
SOUTHWEST KANSAS

CITY           SKY/WX    TMP DP  RH WIND       PRES   REMARKS
DODGE CITY     CLEAR     63  60  90 NE7       30.09S
ELKHART          N/A     70  57  63 NW3         N/A
GARDEN CITY    CLEAR     66  59  78 E8        30.11S
GREAT BEND     CLEAR     64  59  82 N6        30.05F
LIBERAL        PTCLDY    73  57  56 E10       30.11R
PRATT          CLEAR     64  63  94 CALM      30.05F
$$

KSZ066>073-081>083-090>101-290800-
SOUTHEAST KANSAS

CITY           SKY/WX    TMP DP  RH WIND       PRES   REMARKS
CHANUTE        PTCLDY    70  68  93 S7        29.96S
COFFEYVILLE    MOCLDY    69  67  93 NE3       29.96R
HUTCHINSON     MOCLDY    69  65  86 CALM      30.02S
NEWTON         CLEAR     70  63  78 N6        30.02F
PARSONS        HVY RAIN  72  69  90 S12       29.97F FOG
WICHITA INTL   CLEAR     73  67  81 N9        29.98F
WICHITA JABRA  CLEAR     69  67  93 N8        29.98F
$$

KSZ007>012-019>026-033>040-048>060-102>105-290800-
NORTHEAST KANSAS

CITY           SKY/WX    TMP DP  RH WIND       PRES   REMARKS
CONCORDIA      CLEAR     64  62  93 NW6       30.02R
EMPORIA        CLEAR     69  68  96 NW7       29.97S
LAWRENCE       CLOUDY    69  67  93 CALM      29.93F
MANHATTAN      PTCLDY    67  65  93 NW3       29.98S
OLATHE IND     MOCLDY    70  68  93 S6        29.95S
OLATHE EXE     CLOUDY    70  68  93 S6        29.94S
SALINA         CLEAR     67  63  87 W6        30.01S
TOPEKA BILLARD MOCLDY    70  68  93 W6        29.95S
TOPEKA FORBES  CLEAR     70  66  87 NW8       29.95S
$$



USA.gov is the U.S. government's official web portal to all federal, state and local government web resources and services.